Tracking 19145 objects as of 25-Apr-2018
HD Live streaming from Space Station
objects crossing your sky now

XIAOXIANG 2 (TY-2)

Track XIAOXIANG 2 (TY-2) now!
10-day predictions
XIAOXIANG 2 (TY-2) is classified as:


NORAD ID: 43155
Int'l Code: 2018-008A
Perigee: 530.3 km
Apogee: 553.6 km
Inclination: 97.5 °
Period: 95.3 minutes
Semi major axis: 6912 km
RCS: Unknown
Launch date: January 19, 2018
Source: People's Republic of China (PRC)
Launch site: Jiuquan Satellite Launch Center, China (JSC)
Uplink (MHz): 435.350/2403.000/5653.000
Downlink (MHz): 435.350/2403.000/5833.000
Beacon (MHz):
Mode: 9k6 GMSK/5Mbps OFDM
Call sign:
Status: Active

aabbcc
Your satellite tracking list
Your tracking list is empty




NASA's NSSDC Master Catalog

Two Line Element Set (TLE):
1 43155U 18008A   18115.50322701  .00001193  00000-0  76166-4 0  9995
2 43155  97.5263 190.8667 0016847 330.1152 154.7422 15.10469972 14532
Source of the keplerian elements: AFSPC